Weather History for Dallas Love, TX

Change the Weather History Date:

Thursday, November 10, 2011

  Actual Average Record
Temperature  
Mean Temperature 52 °F -  
Max Temperature 64 °F 64 °F 81 °F (2007)
Min Temperature 39 °F 49 °F 37 °F (2000)
Degree Days  
Heating Degree Days 14    
Growing Degree Days 2 (Base 50)    
Moisture  
Dew Point 32 °F    
Average Humidity 52    
Maximum Humidity 79    
Minimum Humidity 22    
Precipitation  
Precipitation 0.00 in - - ()
Sea Level Pressure  
Sea Level Pressure 30.38 in    
Wind  
Wind Speed 4 mph (NW)    
Max Wind Speed 10 mph    
Max Gust Speed 20 mph    
Visibility 10 miles    
Events      
Averages and records for this station are not official NWS values.
T = Trace of Precipitation, MM = Missing Value Source: NWS Daily Summary

Daily Weather History Graph

Daily Weather History Graph

Search for Another Location

Airport:

Trip Planner

Search our weather history database for the weather conditions in past years. The results will help you decide how hot, cold, wet, or windy it might be!

Date:

Astronomy

Nov. 10, 2011 Rise Set
Actual Time 6:52 AM CST 5:29 PM CST
Civil Twilight 6:27 AM CST 5:55 PM CST
Nautical Twilight 5:57 AM CST 6:24 PM CST
Astronomical Twilight 5:28 AM CST 6:53 PM CST
Moon 5:21 PM CST (11/10) 6:44 AM CST (11/10)
Length of Visible Light 11h 28m
Length of Day
10h 36m
Full, 100% of the Moon is Illuminated
Nov 10
Full
Nov 10
Full
Nov 18
Last Quarter
Nov 25
New
Dec 2
First Quarter

Hourly Weather History & Observations

Time (CST) Temp. Windchill Dew Point Humidity Pressure Visibility Wind Dir Wind Speed Gust Speed Precip Events Conditions
12:53 AM 45.0 °F 41.2 °F 35.1 °F 68% 30.43 in 10.0 mi NNW 6.9 mph - N/A   Partly Cloudy
1:53 AM 44.1 °F 39.5 °F 35.1 °F 71% 30.43 in 10.0 mi NNW 8.1 mph - N/A   Clear
2:53 AM 42.8 °F 40.1 °F 33.8 °F 70% 30.44 in 10.0 mi North 4.6 mph - N/A   Clear
3:53 AM 42.8 °F - 35.6 °F 76% 30.43 in 10.0 mi Calm Calm - N/A   Clear
4:53 AM 41.0 °F - 34.0 °F 76% 30.43 in 10.0 mi Calm Calm - N/A   Clear
5:53 AM 41.0 °F - 34.0 °F 76% 30.44 in 10.0 mi Calm Calm - N/A   Clear
6:53 AM 39.9 °F - 34.0 °F 79% 30.45 in 10.0 mi Calm Calm - N/A   Clear
7:53 AM 44.1 °F - 36.0 °F 73% 30.48 in 10.0 mi Calm Calm - N/A   Clear
8:53 AM 48.9 °F - 36.0 °F 61% 30.49 in 10.0 mi NW 4.6 mph - N/A   Clear
9:53 AM 53.1 °F - 36.0 °F 52% 30.47 in 10.0 mi NW 6.9 mph - N/A   Clear
10:53 AM 57.2 °F - 33.8 °F 41% 30.46 in 10.0 mi NW 6.9 mph - N/A   Clear
11:53 AM 60.8 °F - 30.2 °F 31% 30.43 in 10.0 mi North 8.1 mph - N/A   Clear
12:53 PM 64.0 °F - 25.0 °F 23% 30.39 in 10.0 mi NW 10.4 mph - N/A   Clear
1:53 PM 64.0 °F - 25.0 °F 23% 30.36 in 10.0 mi WNW 10.4 mph 19.6 mph N/A   Clear
2:53 PM 64.4 °F - 24.8 °F 22% 30.34 in 10.0 mi NNW 8.1 mph 16.1 mph N/A   Clear
3:53 PM 64.0 °F - 26.1 °F 24% 30.32 in 10.0 mi West 6.9 mph - N/A   Clear
4:53 PM 63.0 °F - 27.0 °F 26% 30.31 in 10.0 mi WNW 5.8 mph - N/A   Clear
5:53 PM 60.1 °F - 28.9 °F 31% 30.30 in 10.0 mi WNW 3.5 mph - N/A   Clear
6:53 PM 55.9 °F - 33.1 °F 42% 30.29 in 10.0 mi Calm Calm - N/A   Clear
7:53 PM 51.1 °F - 36.0 °F 56% 30.29 in 10.0 mi SSW 3.5 mph - N/A   Clear
8:53 PM 51.1 °F - 35.1 °F 54% 30.29 in 10.0 mi Calm Calm - N/A   Clear
9:53 PM 50.0 °F - 34.0 °F 54% 30.28 in 10.0 mi Calm Calm - N/A   Clear
10:53 PM 48.0 °F - 36.0 °F 63% 30.27 in 10.0 mi Calm Calm - N/A   Clear
11:53 PM 46.9 °F - 34.0 °F 61% 30.26 in 10.0 mi Calm Calm - N/A   Clear